Regional Weather Roundup
Issued by NWS Midland/Odessa, TX

Skip options and go directly to product.
Home | Oldest Version | Next Version | Current Version | All | Text Only | Save Text | Print | Product List | Glossary On

Skip product version selection by date and time.   
231
ASUS44 KMAF 181702
RWRMAF
MIDLAND AREA WEATHER ROUNDUP
NATIONAL WEATHER SERVICE MIDLAND TX
1200 PM CDT FRI APR 18 2014

...IN SOUTHWEST TEXAS AND SOUTHEAST NEW MEXICO...

CITY           SKY/WX    TMP DP  RH WIND       PRES   REMARKS
ALPINE         MOSUNNY   67  47  48 CALM      30.27S
ANDREWS        CLOUDY    56  50  80 E9        30.24S
ARTESIA        CLOUDY    54  48  82 S8        30.22S
BIG SPRING     CLOUDY    60  50  69 E8        30.26F
CARLSBAD       CLOUDY    58  49  72 SE10      30.20F
DRYDEN           N/A     64  60  87 E9        30.19F
FORT STOCKTON  PTSUNNY   69  52  54 E18G28    30.19F
GUAD PASS      MOSUNNY   57  45  64 E20       30.24R
HOBBS          CLOUDY    57  52  82 SE15      30.24S
MARFA          MOSUNNY   64  45  48 SE10G20   30.24S
MIDLAND AIRPK  CLOUDY    58  51  77 E9        30.25S
MIDLAND INTL   CLOUDY    58  51  78 SE9       30.24S
ODESSA         CLOUDY    59  51  75 SE10      30.23F
PECOS          PTSUNNY   68  53  58 E7        30.19F
PRESIDIO       FAIR      73  51  46 NE14G20   30.14S
SEMINOLE       CLOUDY    57  49  76 S9        30.25S
SNYDER         CLOUDY    52  49  87 SE5       30.27F
WINK           CLOUDY    66  52  60 SE16      30.19S
$$
...OTHER STATIONS IN TEXAS...

CITY           SKY/WX    TMP DP  RH WIND       PRES   REMARKS
ABILENE        PTSUNNY   61  51  70 VRB6      30.25F
AMARILLO       SUNNY     58  40  51 S12       30.21F
AUSTIN         MOSUNNY   69  60  73 NE10      30.22R
BROWNSVILLE    CLOUDY    74  66  76 NE13      30.16R
CORPUS CHRISTI PTSUNNY   76  59  55 NE16      30.18F
DALLAS FTW     MOSUNNY   68  49  50 E8        30.24S
DEL RIO        CLOUDY    71  55  56 SE8       30.18F
EL PASO        CLOUDY    67  41  38 E10       30.12F
HOUSTON INT    MOSUNNY   72  52  49 N13       30.18F
LUBBOCK        CLOUDY    56  41  57 S8        30.25S
SAN ANGELO     CLOUDY    67  51  56 CALM      30.22F
SAN ANTONIO    PTSUNNY   72  57  59 N8        30.21R
WACO           PTSUNNY   69  54  58 E7        30.23S
WICHITA FALLS  NOT AVBL
$$
...OTHER LOCATIONS IN NEW MEXICO...

CITY           SKY/WX    TMP DP  RH WIND       PRES   REMARKS
ALAMAGORDO     PTSUNNY   63  32  31 W5        30.17S
ALBUQUERQUE    PTSUNNY   63  26  24 VRB7      30.17F
CANNON AFB     PTSUNNY   53  38  57 SW14G21   30.22F
CLOVIS         CLOUDY    52  41  66 S13       30.25F
HOLLOMAN AFB   PTSUNNY   67  35  30 VRB5      30.15F
ROSWELL        CLOUDY    55  47  74 SE10      30.20F
RUIDOSO        SUNNY     61  23  23 SE3       30.26S
SANTA FE       SUNNY     59  26  28 VRB5      30.20F
TRUTH OR CONSE MOSUNNY   67  27  22 S8        30.14S
TUCUMCARI      MOSUNNY   61  44  53 SW23      30.17F
$$

USA.gov is the U.S. government's official web portal to all federal, state and local government web resources and services.